Location: Northam
(31.6525°S, 116.6655°E)
Time: 16:32:24
(UTC+08:00)

Hubble Space Telescope - Pass Details

Date: 16 May 2021
Orbit: 535 x 539 km, 28.5° (Epoch: 17 June)

Event Time Altitude Azimuth Distance (km) Brightness Sun altitude
Rises 17:48:30 0° 319° (NW) 2,675 5.5 -5.6°
Reaches altitude 10° 17:51:17 10° 338° (NNW) 1,789 4.1 -6.2°
Maximum altitude 17:54:10 18° 22° (NNE) 1,346 2.8 -6.8°
Drops below altitude 10° 17:57:04 10° 67° (ENE) 1,797 3.0 -7.4°
Enters shadow 17:58:16 - 77° (ENE) 2,154 3.3 -7.6°
